When you browse on this site, cookies collect data to enhance your experience and personalize the content and advertising you see.
Visit our Privacy Policy to learn more. By continuing to use the site, you agree to this use of cookies and data.
  • En España
  • Lista de países
  • Para 7 días
  • Temperatura del agua
  • El tiempo en el mapa
  • Informadores
  • user-avatar
    Iniciar sesión

    Tiempo cada hora Sacapa

    Hoy, 28 Febrero, Viernes

    Tiempo Temperatura Precipitaciones Viento Presión Humedad
    00:00 +16°C° 0 mm 2 mps 701 mmHg 93%
    01:00 +16°C° 0 mm 1 mps 700 mmHg 93%
    02:00 +16°C° 0 mm 1 mps 700 mmHg 93%
    03:00 +16°C° 0 mm 1 mps 700 mmHg 93%
    04:00 +16°C° 0 mm 1 mps 700 mmHg 93%
    05:00 +16°C° 0 mm 1 mps 700 mmHg 94%
    06:00 +16°C° 0 mm 1 mps 700 mmHg 94%
    07:00 +17°C° 0 mm 2 mps 701 mmHg 89%
    08:00 +18°C° 0 mm 2 mps 701 mmHg 85%
    09:00 +19°C° 0 mm 2 mps 702 mmHg 80%
    10:00 +20°C° 0 mm 2 mps 702 mmHg 78%
    11:00 +20°C° 0 mm 2 mps 702 mmHg 75%
    12:00 +21°C° 0 mm 3 mps 702 mmHg 72%
    13:00 +21°C° 0 mm 3 mps 701 mmHg 75%
    14:00 +20°C° 0 mm 3 mps 701 mmHg 78%
    15:00 +19°C° 0 mm 3 mps 700 mmHg 81%
    16:00 +19°C° 0 mm 2 mps 700 mmHg 84%
    17:00 +18°C° 0 mm 2 mps 700 mmHg 87%
    18:00 +17°C° 0 mm 2 mps 701 mmHg 91%
    19:00 +17°C° 0 mm 2 mps 701 mmHg 91%
    20:00 +17°C° 0 mm 2 mps 702 mmHg 90%
    21:00 +16°C° 0 mm 2 mps 702 mmHg 90%
    22:00 +16°C° 0 mm 2 mps 702 mmHg 91%
    23:00 +16°C° 0 mm 2 mps 702 mmHg 91%

    Mañana, 29 Febrero, Sábado

    Tiempo Temperatura Precipitaciones Viento Presión Humedad
    00:00 +16°C° 0 mm 2 mps 702 mmHg 91%
    01:00 +16°C° 0.1 mm 2 mps 701 mmHg 92%
    02:00 +16°C° 0.1 mm 2 mps 701 mmHg 92%
    03:00 +16°C° 0.1 mm 2 mps 701 mmHg 93%
    04:00 +16°C° 0.1 mm 2 mps 701 mmHg 93%
    05:00 +16°C° 0.1 mm 2 mps 701 mmHg 94%
    06:00 +16°C° 0.1 mm 1 mps 701 mmHg 94%
    07:00 +17°C° 0 mm 2 mps 701 mmHg 90%
    08:00 +18°C° 0 mm 2 mps 702 mmHg 86%
    09:00 +19°C° 0 mm 2 mps 702 mmHg 81%
    10:00 +19°C° 0 mm 2 mps 702 mmHg 78%
    11:00 +20°C° 0 mm 3 mps 702 mmHg 74%
    12:00 +21°C° 0 mm 3 mps 702 mmHg 70%
    13:00 +21°C° 0 mm 3 mps 701 mmHg 71%
    14:00 +21°C° 0 mm 3 mps 700 mmHg 71%
    15:00 +21°C° 0 mm 3 mps 700 mmHg 72%
    16:00 +20°C° 0 mm 3 mps 700 mmHg 76%
    17:00 +19°C° 0 mm 2 mps 700 mmHg 81%
    18:00 +17°C° 0 mm 2 mps 700 mmHg 86%
    19:00 +17°C° 0 mm 2 mps 700 mmHg 88%
    20:00 +16°C° 0 mm 1 mps 700 mmHg 91%
    21:00 +15°C° 0 mm 1 mps 701 mmHg 94%
    22:00 +15°C° 0 mm 1 mps 701 mmHg 94%
    23:00 +15°C° 0 mm 1 mps 700 mmHg 93%

    Pasado mañana, 1 Marzo, Domingo

    Tiempo Temperatura Precipitaciones Viento Presión Humedad
    00:00 +15°C° 0 mm 1 mps 700 mmHg 93%
    01:00 +15°C° 0 mm 1 mps 700 mmHg 94%
    02:00 +15°C° 0 mm 1 mps 699 mmHg 95%
    03:00 +14°C° 0 mm 1 mps 699 mmHg 95%
    04:00 +14°C° 0 mm 1 mps 699 mmHg 95%
    05:00 +13°C° 0 mm 0 mps 699 mmHg 94%
    06:00 +13°C° 0 mm 0 mps 699 mmHg 94%
    07:00 +18°C° 0 mm 1 mps 700 mmHg 86%
    08:00 +20°C° 0 mm 1 mps 701 mmHg 77%
    09:00 +22°C° 0 mm 1 mps 701 mmHg 69%
    10:00 +23°C° 0 mm 2 mps 701 mmHg 64%
    11:00 +24°C° 0 mm 2 mps 700 mmHg 60%
    12:00 +26°C° 0 mm 2 mps 700 mmHg 56%
    13:00 +26°C° 0 mm 2 mps 699 mmHg 54%
    14:00 +27°C° 0 mm 3 mps 698 mmHg 53%
    15:00 +27°C° 0 mm 3 mps 697 mmHg 52%
    16:00 +25°C° 0 mm 2 mps 697 mmHg 61%
    17:00 +24°C° 0 mm 2 mps 697 mmHg 71%
    18:00 +21°C° 0 mm 2 mps 697 mmHg 80%
    19:00 +20°C° 0 mm 2 mps 697 mmHg 86%
    20:00 +20°C° 0 mm 1 mps 698 mmHg 92%
    21:00 +19°C° 0 mm 1 mps 698 mmHg 97%
    22:00 +18°C° 0 mm 1 mps 698 mmHg 97%
    23:00 +18°C° 0 mm 1 mps 698 mmHg 97%

    2 Marzo, Lunes

    Tiempo Temperatura Precipitaciones Viento Presión Humedad
    00:00 +16°C° 0 mm 0 mps 697 mmHg 97%
    01:00 +15°C° 0 mm 0 mps 697 mmHg 97%
    02:00 +15°C° 0 mm 0 mps 697 mmHg 96%
    03:00 +15°C° 0 mm 0 mps 696 mmHg 96%
    04:00 +15°C° 0 mm 0 mps 696 mmHg 96%
    05:00 +15°C° 0 mm 0 mps 697 mmHg 96%
    06:00 +15°C° 0 mm 0 mps 697 mmHg 96%
    07:00 +17°C° 0 mm 0 mps 697 mmHg 85%
    08:00 +20°C° 0 mm 0 mps 698 mmHg 74%
    09:00 +23°C° 0 mm 0 mps 699 mmHg 63%
    10:00 +25°C° 0 mm 0 mps 699 mmHg 55%
    11:00 +28°C° 0 mm 0 mps 698 mmHg 47%
    12:00 +33°C° 0 mm 1 mps 698 mmHg 39%
    13:00 +33°C° 0 mm 1 mps 697 mmHg 38%
    14:00 +33°C° 0 mm 1 mps 696 mmHg 36%
    15:00 +34°C° 0 mm 2 mps 696 mmHg 35%
    16:00 +31°C° 0 mm 2 mps 695 mmHg 47%
    17:00 +28°C° 0 mm 2 mps 695 mmHg 59%
    18:00 +25°C° 0 mm 2 mps 695 mmHg 71%
    19:00 +24°C° 0 mm 1 mps 695 mmHg 79%
    20:00 +22°C° 0 mm 1 mps 696 mmHg 88%
    21:00 +21°C° 0 mm 1 mps 696 mmHg 96%
    22:00 +19°C° 0 mm 0 mps 696 mmHg 96%
    23:00 +19°C° 0 mm 0 mps 696 mmHg 95%

    3 Marzo, Martes

    Tiempo Temperatura Precipitaciones Viento Presión Humedad
    00:00 +19°C° 0 mm 0 mps 696 mmHg 95%
    01:00 +19°C° 0 mm 0 mps 695 mmHg 94%
    02:00 +19°C° 0 mm 0 mps 695 mmHg 94%
    03:00 +21°C° 0 mm 1 mps 695 mmHg 93%
    04:00 +20°C° 0 mm 1 mps 695 mmHg 94%
    05:00 +20°C° 0 mm 1 mps 695 mmHg 94%
    06:00 +19°C° 0 mm 1 mps 695 mmHg 95%
    07:00 +22°C° 0 mm 1 mps 696 mmHg 82%
    08:00 +25°C° 0 mm 1 mps 697 mmHg 69%
    09:00 +28°C° 0 mm 1 mps 697 mmHg 56%
    10:00 +30°C° 0 mm 2 mps 697 mmHg 49%
    11:00 +32°C° 0 mm 2 mps 697 mmHg 42%
    12:00 +35°C° 0 mm 2 mps 697 mmHg 35%
    13:00 +35°C° 0 mm 2 mps 696 mmHg 35%
    14:00 +35°C° 0 mm 2 mps 695 mmHg 35%
    15:00 +35°C° 0 mm 3 mps 695 mmHg 35%
    16:00 +32°C° 0 mm 2 mps 694 mmHg 41%
    17:00 +30°C° 0 mm 2 mps 694 mmHg 48%
    18:00 +28°C° 0 mm 1 mps 694 mmHg 54%
    19:00 +27°C° 0 mm 1 mps 695 mmHg 60%
    20:00 +25°C° 0 mm 1 mps 695 mmHg 65%
    21:00 +24°C° 0 mm 1 mps 695 mmHg 71%
    22:00 +23°C° 0 mm 1 mps 695 mmHg 74%
    23:00 +23°C° 0 mm 1 mps 695 mmHg 77%

    4 Marzo, Miércoles

    Tiempo Temperatura Precipitaciones Viento Presión Humedad
    00:00 +22°C° 0 mm 1 mps 695 mmHg 80%
    01:00 +22°C° 0 mm 1 mps 695 mmHg 82%
    02:00 +20°C° 0 mm 2 mps 695 mmHg 84%
    03:00 +20°C° 0 mm 2 mps 695 mmHg 85%
    04:00 +20°C° 0 mm 2 mps 695 mmHg 86%
    05:00 +21°C° 0 mm 1 mps 695 mmHg 87%
    06:00 +20°C° 0 mm 1 mps 696 mmHg 88%
    07:00 +23°C° 0 mm 1 mps 697 mmHg 77%
    08:00 +26°C° 0 mm 1 mps 697 mmHg 66%
    09:00 +28°C° 0 mm 1 mps 698 mmHg 55%
    10:00 +31°C° 0 mm 1 mps 699 mmHg 47%
    11:00 +34°C° 0 mm 1 mps 699 mmHg 39%
    12:00 +35°C° 0 mm 0 mps 699 mmHg 31%
    13:00 +37°C° 0 mm 2 mps 698 mmHg 33%
    14:00 +37°C° 0 mm 3 mps 698 mmHg 35%
    15:00 +36°C° 0 mm 4 mps 697 mmHg 36%
    16:00 +33°C° 0.1 mm 3 mps 697 mmHg 48%
    17:00 +29°C° 0.1 mm 3 mps 697 mmHg 59%
    18:00 +27°C° 0.1 mm 2 mps 697 mmHg 71%
    19:00 +25°C° 0.1 mm 2 mps 698 mmHg 77%
    20:00 +24°C° 0.1 mm 2 mps 699 mmHg 83%
    21:00 +23°C° 0.1 mm 2 mps 699 mmHg 89%
    22:00 +23°C° 0.2 mm 2 mps 699 mmHg 89%
    23:00 +21°C° 0.2 mm 2 mps 699 mmHg 90%
    Mostrar más